Tiempo atmosférico en la estación meteorológica de Elgeta, Gipuzkoa (470 m.)



Fecha
DESCASC
Temp. máxima en grados centígrados (hora)
DESCASC
Temp. mínima en grados centígrados (hora)
DESCASC
Temp. media en grados centígrados
DESCASC
Racha de viento máxima en m/sg (hora)
DESCASC
Velocidad máxima media en intervalos de 10 minutos(hora)
DESCASC
Precipitaciones diarias en mm
DESCASC
Precipitaciones de 00:00 a 06:00 en mm
DESCASC
Precipitaciones de 06:00 a 12:00 en mm
DESCASC
Precipitaciones de 12:00 a 18:00 en mm
DESCASC
Precipitaciones de 18:00 a 24:00 en mm
DESCASC
10-11-2019 6.2 (00:00) 3 (00:00) 4.6 10 (08:30) 3.89 (08:30) 40.6 13.8 8.2 11.2 7.4
09-11-2019 9.6 (11:10) 5.8 (00:00) 7.7 12.22 (19:40) 4.17 (19:40) 22.8 4.2 1 5.8 11.8
08-11-2019 7.3 (16:10) 3.3 (00:00) 5.3 13.33 (19:10) 4.72 (16:30) 88.8 0.4 7 57.4 24
07-11-2019 10.7 (14:50) 2.9 (00:00) 6.8 11.94 (02:50) 4.72 (03:00) 10.2 9.2 0 1 0
06-11-2019 11.3 (22:00) 8 (00:00) 9.7 9.44 (01:00) 3.33 (00:50) 9.6 5.8 3.4 0 0.4
05-11-2019 8.9 (20:20) 6.2 (00:00) 7.5 10.83 (20:30) 4.17 (19:00) 47.8 0 0.2 9.8 37.8
04-11-2019 15.4 (04:00) 7.6 (00:00) 11.5 10 (04:00) 3.89 (06:40) 14.6 0 2.4 12.2 0
03-11-2019 14.9 (00:00) 8.2 (00:00) 11.5 19.17 (06:10) 7.22 (06:20) 4 3.8 0 0 0.2
02-11-2019 14.9 (23:59) 12.1 (00:00) 13.5 9.72 (23:59) 3.06 (23:59) 3.8 0 3 0.8 0
01-11-2019 20.8 (13:40) 13.4 (00:00) 17.1 10.28 (17:10) 2.78 (17:10) 2.4 0.8 0 1.2 0.4
31-10-2019 17.3 (15:30) 12.8 (20:30) 15 8.89 (07:30) 2.78 (07:30) 4.8 3.8 1 0 0
30-10-2019 20.8 (13:50) 11.5 (00:00) 16.1 6.11 (23:10) 2.78 (23:10) 0 0 0 0 0
29-10-2019 21.5 (14:20) 12.9 (00:00) 17.2 3.89 (07:40) 1.67 (13:10) 0 0 0 0 0
28-10-2019 24 (14:50) 14.3 (00:00) 19.2 5.83 (13:10) 1.94 (10:00) 0 0 0 0 0
27-10-2019 22.2 (14:10) 13 (00:00) 17.6 6.67 (19:30) 2.5 (22:00) 0 0 0 0 0
26-10-2019 23.3 (15:40) 12 (00:00) 17.6 5.83 (14:00) 2.22 (13:10) 0 0 0 0 0
25-10-2019 21.2 (15:30) 9.7 (00:00) 15.5 4.72 (06:40) 1.67 (08:10) 0 0 0 0 0
24-10-2019 12.7 (18:00) 7.9 (00:00) 10.3 4.17 (02:10) 1.67 (13:30) 1.2 0 0 1.2 0
23-10-2019 15.2 (15:30) 9.8 (00:00) 12.5 5 (04:20) 1.67 (20:10) 13.6 0 0.4 4.6 8.6
22-10-2019 12.4 (11:10) 5.4 (00:00) 8.9 8.61 (16:30) 2.78 (18:40) 19.4 0 0.2 9 10.2
21-10-2019 13.9 (13:50) 6.5 (00:00) 10.2 3.61 (17:10) 1.39 (09:30) 0.4 0.4 0 0 0
20-10-2019 12.5 (00:00) 8.2 (00:00) 10.3 8.33 (05:30) 2.5 (06:20) 38.4 9.2 20.2 4.4 4.6
19-10-2019 19.8 (15:20) 12.4 (00:00) 16.1 6.94 (08:10) 2.5 (08:10) 7.6 0.2 0 0 7.4
18-10-2019 16.5 (15:20) 12.2 (00:00) 14.3 5 (22:10) 1.94 (07:50) 2.4 0 2.4 0 0
17-10-2019 21.2 (15:30) 12.2 (00:00) 16.7 8.89 (03:40) 2.78 (03:30) 3.4 1.8 1.6 0 0
16-10-2019 20.5 (16:30) 11.9 (00:00) 16.2 9.17 (12:20) 2.78 (13:10) 0 0 0 0 0
15-10-2019 16.9 (16:30) 6.8 (00:00) 11.8 6.39 (20:40) 1.94 (16:00) 0.2 0.2 0 0 0

Gráficas

Temp. máximas Temp. mínimas Temp. medias Precipitaciones Rachas de viento máximas Velocidades máximas media en intervalos de 10 minutos

Datos horarios

Fecha y hora oficial Temperatura (ºC) Velocidad del viento (km/h) Dirección del viento Racha (km/h) Dirección de racha Precipitación (mm) Presión (hPa) Tendencia (hPa) Humedad (%)
2019-11-13 23:00:00 6.8 3 Sudeste 11 Sur 0 -- -- 96
2019-11-13 22:00:00 7.1 3 Sur 12 Sudeste 0 -- -- 97
2019-11-13 21:00:00 7.3 2 Sur 5 Sur 0 -- -- 98
2019-11-13 20:00:00 7.3 2 Sur 6 Sudeste 0 -- -- 98
2019-11-13 19:00:00 6.9 3 Sudoeste 7 Sudeste 0 -- -- 97
2019-11-13 18:00:00 7.4 3 Oeste 8 Oeste 0 -- -- 96
2019-11-13 17:00:00 8.4 3 Noroeste 8 Norte 0 -- -- 93
2019-11-13 16:00:00 8.6 5 Norte 15 Oeste 0 -- -- 93
2019-11-13 15:00:00 8.6 10 Noroeste 25 Oeste 0.6 -- -- 91
2019-11-13 14:00:00 9.5 3 Noroeste 21 Oeste 0 -- -- 91
2019-11-13 13:00:00 8.9 8 Noroeste 18 Noroeste 0 -- -- 89
2019-11-13 12:00:00 9.1 9 Norte 23 Nordeste 0 -- -- 89
2019-11-13 11:00:00 9 5 Noroeste 17 Norte 0 -- -- 97
2019-11-13 10:00:00 8.4 4 Noroeste 16 Oeste 0.2 -- -- 98
2019-11-13 09:00:00 8 5 Noroeste 18 Noroeste 2 -- -- 98
2019-11-13 08:00:00 8 3 Noroeste 16 Noroeste 0 -- -- 97
2019-11-13 07:00:00 7.9 6 Noroeste 28 Norte 1.2 -- -- 98
2019-11-13 06:00:00 7.4 4 Oeste 9 Sudoeste 0.2 -- -- 99
2019-11-13 05:00:00 7.3 3 Noroeste 10 Oeste 0.8 -- -- 98
2019-11-13 04:00:00 7.5 3 Oeste 6 Sudoeste 0.2 -- -- 98
2019-11-13 03:00:00 7.3 0 Calma 6 Sudoeste 0 -- -- 98
2019-11-13 02:00:00 7.2 2 Sur 5 Sudoeste 0 -- -- 98
2019-11-13 01:00:00 7.2 3 Sur 7 Este 0 -- -- 97
2019-11-13 00:00:00 7.2 3 Sudeste 11 Sudeste 0 -- -- 96
2019-11-12 23:00:00 7.2 0 Calma 8 Sur 0 -- -- 96
2019-11-12 22:00:00 7.4 3 Sur 9 Este 0.2 -- -- 96
2019-11-12 21:00:00 7.4 3 Este 8 Sudeste 0.4 -- -- 97
2019-11-12 20:00:00 7.6 3 Nordeste 6 Oeste 0.2 -- -- 96
2019-11-12 19:00:00 7.7 0 Calma 6 Sudoeste 0 -- -- 96
2019-11-12 18:00:00 7.9 0 Calma 5 Sudoeste 0 -- -- 94
2019-11-12 17:00:00 9.3 2 Sudoeste 4 Oeste 0 -- -- 90
2019-11-12 16:00:00 9.8 0 Calma 12 Noroeste 0 -- -- 85
2019-11-12 15:00:00 10.1 4 Norte 17 Noroeste 0 -- -- 83
2019-11-12 14:00:00 9.6 5 Noroeste 20 Oeste 0 -- -- 84
2019-11-12 13:00:00 8.8 5 Noroeste 12 Norte 0 -- -- 93
2019-11-12 12:00:00 8.4 5 Noroeste 13 Norte 0 -- -- 93
2019-11-12 11:00:00 7.4 4 Norte 13 Norte 0.2 -- -- 97
2019-11-12 10:00:00 6.9 4 Norte 11 Norte 0 -- -- 98
2019-11-12 09:00:00 6.4 3 Noroeste 13 Noroeste 0.6 -- -- 97
2019-11-12 08:00:00 6.3 8 Noroeste 23 Oeste 0.8 -- -- 97
2019-11-12 07:00:00 6.2 7 Noroeste 18 Norte 0.4 -- -- 98
2019-11-12 06:00:00 6.1 3 Norte 13 Oeste 0.4 -- -- 98
2019-11-12 05:00:00 6.3 6 Noroeste 19 Noroeste 0.8 -- -- 98
2019-11-12 04:00:00 6.1 5 Norte 11 Noroeste 0.4 -- -- 98
2019-11-12 03:00:00 6 0 Calma 9 Noroeste 0 -- -- 97
2019-11-12 02:00:00 6.1 5 Noroeste 14 Oeste 0.2 -- -- 97
2019-11-12 01:00:00 6.2 6 Noroeste 15 Noroeste 1.2 -- -- 97
2019-11-12 00:00:00 6.1 6 Noroeste 13 Oeste 0.8 -- -- 96
2019-11-11 23:00:00 6 3 Norte 21 Noroeste 0 -- -- 91
2019-11-11 22:00:00 5.6 6 Noroeste 14 Oeste 0 -- -- 93
2019-11-11 21:00:00 6.2 8 Noroeste 23 Oeste 0 -- -- 90
2019-11-11 20:00:00 6.7 8 Noroeste 20 Noroeste 0 -- -- 91
2019-11-11 19:00:00 6.7 11 Noroeste 35 Oeste 0.4 -- -- 91
2019-11-11 18:00:00 7.4 9 Oeste 24 Noroeste 0 -- -- 85
2019-11-11 17:00:00 7.8 9 Noroeste 33 Oeste 0 -- -- 90
2019-11-11 16:00:00 8 6 Noroeste 26 Noroeste 0 -- -- 94
2019-11-11 15:00:00 7.8 8 Noroeste 30 Norte 1.2 -- -- 96
2019-11-11 14:00:00 8.3 9 Norte 36 Noroeste 0 -- -- 98
2019-11-11 13:00:00 8 15 Noroeste 32 Oeste 1.4 -- -- 100
2019-11-11 12:00:00 6.4 2 Sudeste 6 Sudeste 1.8 -- -- 100
2019-11-11 11:00:00 5.7 4 Sudeste 10 Sudeste 1.6 -- -- 100
2019-11-11 10:00:00 5.5 3 Sudeste 8 Sur 0.2 -- -- 100
2019-11-11 09:00:00 4.9 4 Sudeste 10 Sudeste 0 -- -- 100
2019-11-11 08:00:00 4.6 5 Sudeste 9 Sudeste 0 -- -- 100
2019-11-11 07:00:00 4.6 3 Sudeste 9 Sudeste 0 -- -- 99
2019-11-11 06:00:00 4.3 5 Sudeste 10 Sur 0 -- -- 99
2019-11-11 05:00:00 4.3 5 Sudeste 9 Sur 0.4 -- -- 99
2019-11-11 04:00:00 4.1 3 Sur 9 Sudeste 0.2 -- -- 99
2019-11-11 03:00:00 4 2 Sudeste 10 Sudeste 0 -- -- 99
2019-11-11 02:00:00 4 4 Sudeste 8 Sudeste 0.2 -- -- 99
2019-11-11 01:00:00 3.9 3 Sudeste 9 Sudeste 0 -- -- 99
2019-11-11 00:00:00 4 4 Sudeste 10 Sudeste 0 -- -- 99
2019-11-10 23:00:00 4.1 4 Sudeste 9 Sur 1.8 -- -- 99
2019-11-10 22:00:00 4.1 0 Calma 9 Sudeste 1.8 -- -- 99
2019-11-10 21:00:00 4.4 3 Sudoeste 14 Noroeste 3.4 -- -- 98
2019-11-10 20:00:00 4.3 4 Sudeste 14 Noroeste 0.2 -- -- 98
2019-11-10 19:00:00 4.3 4 Noroeste 13 Noroeste 0.2 -- -- 98
2019-11-10 18:00:00 4.8 7 Oeste 23 Oeste 1.6 -- -- 95
2019-11-10 17:00:00 4.6 4 Noroeste 13 Noroeste 0 -- -- 96
2019-11-10 16:00:00 4.9 4 Norte 23 Noroeste 0.6 -- -- 96
2019-11-10 15:00:00 5.1 4 Noroeste 23 Nordeste 3 -- -- 96
2019-11-10 14:00:00 5.6 5 Sudeste 14 Sudeste 1.2 -- -- 96
2019-11-10 13:00:00 4.7 7 Noroeste 22 Noroeste 4.8 -- -- 97
2019-11-10 12:00:00 5.2 5 Noroeste 23 Oeste 0 -- -- 96
2019-11-10 11:00:00 4.8 8 Noroeste 21 Noroeste 1 -- -- 97
2019-11-10 10:00:00 4.4 6 Noroeste 18 Norte 0.4 -- -- 97
2019-11-10 09:00:00 4.2 6 Noroeste 36 Noroeste 2.4 -- -- 98
2019-11-10 08:00:00 4.1 8 Noroeste 28 Oeste 1 -- -- 97
2019-11-10 07:00:00 3.6 4 Oeste 13 Oeste 3.4 -- -- 98
2019-11-10 06:00:00 3 4 Sudoeste 9 Noroeste 6.8 -- -- 96
2019-11-10 05:00:00 4.4 3 Nordeste 16 Norte 0.2 -- -- 97
2019-11-10 04:00:00 4.5 8 Noroeste 21 Oeste 1.2 -- -- 97
2019-11-10 03:00:00 4.7 6 Noroeste 18 Noroeste 2.2 -- -- 96
2019-11-10 02:00:00 5 7 Noroeste 25 Sudoeste 0.4 -- -- 96
2019-11-10 01:00:00 5.2 8 Noroeste 22 Norte 3 -- -- 95
2019-11-10 00:00:00 6.2 7 Noroeste 23 Noroeste 0 -- -- 97
2019-11-09 23:00:00 5.9 8 Noroeste 24 Noroeste 1.6 -- -- 96
2019-11-09 22:00:00 5.9 5 Noroeste 28 Noroeste 3.6 -- -- 97
2019-11-09 21:00:00 6.5 9 Noroeste 34 Noroeste 2.8 -- -- 97
2019-11-09 20:00:00 7.1 12 Noroeste 44 Oeste 2.8 -- -- 97
2019-11-09 19:00:00 8.5 5 Norte 35 Oeste 1 -- -- 97
2019-11-09 18:00:00 8.9 8 Noroeste 30 Noroeste 0 -- -- 96
2019-11-09 17:00:00 8.7 11 Noroeste 29 Oeste 2.2 -- -- 97
2019-11-09 16:00:00 8.3 3 Norte 17 Oeste 2 -- -- 95
2019-11-09 15:00:00 8.1 3 Nordeste 15 Este 1.4 -- -- 96
2019-11-09 14:00:00 9.2 3 Noroeste 11 Oeste 0 -- -- 86
2019-11-09 13:00:00 8.5 3 Sur 13 Sudeste 0.2 -- -- 89
2019-11-09 12:00:00 8.8 2 Nordeste 13 Sudeste 0 -- -- 90
2019-11-09 11:00:00 9 4 Sudeste 11 Sudeste 0 -- -- 93
2019-11-09 10:00:00 7.4 4 Sudeste 8 Sudeste 0 -- -- 98
2019-11-09 09:00:00 6.9 0 Calma 6 Norte 0 -- -- 98
2019-11-09 08:00:00 6.7 3 Norte 13 Noroeste 0 -- -- 98
2019-11-09 07:00:00 6.8 4 Norte 14 Noroeste 1 -- -- 98
2019-11-09 06:00:00 7 4 Norte 24 Oeste 0.6 -- -- 98
2019-11-09 05:00:00 6.8 6 Norte 27 Norte 0.2 -- -- 98
2019-11-09 04:00:00 6.6 10 Noroeste 23 Noroeste 0.4 -- -- 98
2019-11-09 03:00:00 6.6 6 Noroeste 29 Noroeste 0 -- -- 97
2019-11-09 02:00:00 6.5 10 Noroeste 33 Noroeste 3 -- -- 98
2019-11-09 01:00:00 6 6 Noroeste 32 Noroeste 0 -- -- 97
2019-11-09 00:00:00 6.3 7 Noroeste 42 Noroeste 1.4 -- -- 97
2019-11-08 23:00:00 6.3 10 Noroeste 33 Noroeste 0.6 -- -- 98
2019-11-08 22:00:00 5.9 12 Noroeste 35 Oeste 5.6 -- -- 97
2019-11-08 21:00:00 6.6 12 Noroeste 37 Noroeste 0.4 -- -- 98
2019-11-08 20:00:00 6.6 10 Noroeste 48 Noroeste 9.8 -- -- 98
2019-11-08 19:00:00 6.6 15 Noroeste 42 Noroeste 6.2 -- -- 98
2019-11-08 18:00:00 5.9 13 Noroeste 40 Oeste 36.2 -- -- 98
2019-11-08 17:00:00 7.2 13 Noroeste 42 Noroeste 4.6 -- -- 96
2019-11-08 16:00:00 7.2 11 Noroeste 30 Noroeste 4.2 -- -- 97
2019-11-08 15:00:00 6.7 12 Noroeste 28 Noroeste 4.2 -- -- 98
2019-11-08 14:00:00 5.7 9 Noroeste 33 Noroeste 3.4 -- -- 98
2019-11-08 13:00:00 5.6 8 Noroeste 27 Noroeste 4.8 -- -- 97
2019-11-08 12:00:00 5.3 10 Norte 30 Norte 5 -- -- 96
2019-11-08 11:00:00 5.3 5 Norte 30 Noroeste 1 -- -- 96
2019-11-08 10:00:00 5.2 8 Norte 19 Noroeste 0.8 -- -- 95
2019-11-08 09:00:00 5 4 Norte 18 Noroeste 0 -- -- 95
2019-11-08 08:00:00 4.6 3 Norte 32 Oeste 0.2 -- -- 96
2019-11-08 07:00:00 4.2 4 Sudeste 10 Sur 0 -- -- 96
2019-11-08 06:00:00 4.1 5 Noroeste 14 Noroeste 0.2 -- -- 95
2019-11-08 05:00:00 4.2 4 Norte 23 Noroeste 0.2 -- -- 94
2019-11-08 04:00:00 4.1 2 Oeste 6 Sudoeste 0 -- -- 95
2019-11-08 03:00:00 4.2 3 Sudoeste 18 Oeste 0 -- -- 92
2019-11-08 02:00:00 4.9 4 Norte 26 Oeste 0 -- -- 85
2019-11-08 01:00:00 4.5 3 Oeste 11 Sur 0 -- -- 90
2019-11-08 00:00:00 3.3 0 Calma 10 Noroeste 0 -- -- 95
2019-11-07 23:00:00 3 2 Sudoeste 7 Sudoeste 0 -- -- 96
2019-11-07 22:00:00 3.3 3 Sudoeste 7 Sur 0 -- -- 95
2019-11-07 21:00:00 4 0 Calma 14 Oeste 0 -- -- 94
2019-11-07 20:00:00 4.8 5 Noroeste 14 Noroeste 0 -- -- 95
2019-11-07 19:00:00 4.6 4 Noroeste 15 Noroeste 0 -- -- 94
2019-11-07 18:00:00 5.3 3 Oeste 22 Noroeste 0.6 -- -- 95
2019-11-07 17:00:00 5.9 5 Noroeste 21 Noroeste 0.4 -- -- 92
2019-11-07 16:00:00 7.7 8 Noroeste 21 Oeste 0 -- -- 85
2019-11-07 15:00:00 10.2 6 Norte 26 Oeste 0 -- -- 65
2019-11-07 14:00:00 9.7 6 Noroeste 20 Noroeste 0 -- -- 65
2019-11-07 13:00:00 9.5 8 Noroeste 28 Norte 0 -- -- 70
2019-11-07 12:00:00 8.5 9 Noroeste 26 Noroeste 0 -- -- 75
2019-11-07 11:00:00 7.2 4 Norte 17 Oeste 0 -- -- 92
2019-11-07 10:00:00 6.3 6 Norte 33 Noroeste 0 -- -- 93
2019-11-07 09:00:00 6.5 9 Noroeste 30 Noroeste 0 -- -- 96
2019-11-07 08:00:00 6.6 6 Noroeste 28 Oeste 0 -- -- 95
2019-11-07 07:00:00 7.2 14 Noroeste 40 Noroeste 0 -- -- 94
2019-11-07 06:00:00 7.8 10 Noroeste 36 Oeste 0 -- -- 96
2019-11-07 05:00:00 8.1 8 Noroeste 28 Norte 0 -- -- 95
2019-11-07 04:00:00 8.5 9 Norte 38 Oeste 0 -- -- 95
2019-11-07 03:00:00 9.4 17 Noroeste 43 Oeste 6.6 -- -- 96
2019-11-07 02:00:00 9.7 4 Noroeste 11 Noroeste 2.2 -- -- 97
2019-11-07 01:00:00 9.8 2 Oeste 18 Oeste 0.4 -- -- 96
2019-11-07 00:00:00 9.7 4 Sudoeste 13 Nordeste 0 -- -- 95
2019-11-06 23:00:00 9.8 5 Nordeste 22 Noroeste 0.4 -- -- 92
2019-11-06 22:00:00 11.3 10 Oeste 28 Oeste 0 -- -- 77
2019-11-06 21:00:00 8.5 3 Norte 8 Sudoeste 0 -- -- 92
2019-11-06 20:00:00 9.5 4 Sur 9 Sudeste 0 -- -- 90
2019-11-06 19:00:00 8.9 4 Sudoeste 8 Sudoeste 0 -- -- 94
2019-11-06 18:00:00 9.3 3 Sudoeste 6 Sur 0 -- -- 93
2019-11-06 17:00:00 10.6 2 Sur 4 Sur 0 -- -- 92
2019-11-06 16:00:00 10.7 0 Calma 5 Este 0 -- -- 88
2019-11-06 15:00:00 10.3 0 Calma 6 Oeste 0 -- -- 87
2019-11-06 14:00:00 9.8 3 Norte 9 Oeste 0 -- -- 94
2019-11-06 13:00:00 9.2 3 Nordeste 11 Noroeste 0 -- -- 96
2019-11-06 12:00:00 8.8 5 Noroeste 12 Noroeste 0 -- -- 96
2019-11-06 11:00:00 8.5 3 Norte 10 Noroeste 0 -- -- 97
2019-11-06 10:00:00 8.4 4 Noroeste 13 Noroeste 0 -- -- 97
2019-11-06 09:00:00 8.1 4 Norte 19 Noroeste 1.2 -- -- 97
2019-11-06 08:00:00 8.2 5 Noroeste 19 Noroeste 0 -- -- 97
2019-11-06 07:00:00 8.1 6 Noroeste 24 Noroeste 2.2 -- -- 96
2019-11-06 06:00:00 8.2 6 Noroeste 15 Noroeste 2.6 -- -- 97
2019-11-06 05:00:00 8.3 7 Noroeste 29 Norte 0.2 -- -- 95
2019-11-06 04:00:00 8.4 5 Norte 25 Oeste 0.2 -- -- 97
2019-11-06 03:00:00 8.2 10 Noroeste 31 Noroeste 1 -- -- 96
2019-11-06 02:00:00 8.5 6 Noroeste 28 Noroeste 0.4 -- -- 98
2019-11-06 01:00:00 8.5 12 Noroeste 34 Noroeste 1.4 -- -- 97
2019-11-06 00:00:00 8.5 12 Noroeste 35 Oeste 1 -- -- 97
2019-11-05 23:00:00 8.6 7 Noroeste 23 Noroeste 10.2 -- -- 97
2019-11-05 22:00:00 8.4 10 Noroeste 38 Oeste 11 -- -- 96
2019-11-05 21:00:00 8.8 7 Noroeste 39 Noroeste 7.2 -- -- 96
2019-11-05 20:00:00 8.6 10 Noroeste 31 Norte 0.6 -- -- 96
2019-11-05 19:00:00 8.2 15 Noroeste 38 Oeste 7.8 -- -- 96
2019-11-05 18:00:00 8 10 Noroeste 23 Noroeste 2.2 -- -- 96
2019-11-05 17:00:00 8.2 5 Noroeste 28 Noroeste 3.4 -- -- 96
2019-11-05 16:00:00 7.9 5 Norte 19 Norte 1.6 -- -- 96
2019-11-05 15:00:00 7.7 7 Norte 21 Noroeste 1 -- -- 95
2019-11-05 14:00:00 7.3 5 Noroeste 16 Oeste 1.6 -- -- 94
2019-11-05 13:00:00 7.9 6 Norte 23 Noroeste 0 -- -- 90
2019-11-05 12:00:00 8 7 Norte 27 Noroeste 0 -- -- 90
2019-11-05 11:00:00 7.3 3 Norte 21 Noroeste 0 -- -- 91
2019-11-05 10:00:00 7.3 8 Sudoeste 24 Noroeste 0 -- -- 84
2019-11-05 09:00:00 7.5 4 Noroeste 20 Noroeste 0.2 -- -- 84
2019-11-05 08:00:00 7.8 4 Noroeste 17 Este 0 -- -- 77
2019-11-05 07:00:00 8 4 Oeste 14 Oeste 0 -- -- 75
2019-11-05 06:00:00 7.2 4 Sudoeste 14 Norte 0 -- -- 85
2019-11-05 05:00:00 6.2 0 Calma 13 Oeste 0 -- -- 91
2019-11-05 04:00:00 7.8 5 Noroeste 19 Noroeste 0 -- -- 75
2019-11-05 03:00:00 6.2 3 Sudoeste 9 Sudeste 0 -- -- 93
2019-11-05 02:00:00 6.3 4 Sudoeste 8 Oeste 0 -- -- 94
2019-11-05 01:00:00 6.7 3 Sudoeste 8 Sur 0 -- -- 95
2019-11-05 00:00:00 7.6 3 Sur 9 Sudeste 0 -- -- 94
2019-11-04 23:00:00 7.6 3 Sudoeste 5 Sur 0 -- -- 96
2019-11-04 22:00:00 8.1 2 Noroeste 9 Oeste 0 -- -- 94
2019-11-04 21:00:00 8.4 4 Noroeste 12 Noroeste 0 -- -- 92
2019-11-04 20:00:00 8.4 4 Noroeste 10 Norte 0 -- -- 94
2019-11-04 19:00:00 8.9 5 Noroeste 14 Nordeste 0 -- -- 93
2019-11-04 18:00:00 9.2 4 Noroeste 16 Norte 0 -- -- 94
2019-11-04 17:00:00 9.7 5 Norte 21 Noroeste 0 -- -- 96
2019-11-04 16:00:00 9.9 6 Noroeste 26 Oeste 0 -- -- 94
2019-11-04 15:00:00 10.3 10 Noroeste 26 Oeste 0 -- -- 95
2019-11-04 14:00:00 10.8 8 Noroeste 28 Noroeste 3 -- -- 95
2019-11-04 13:00:00 11.1 12 Noroeste 29 Oeste 9.2 -- -- 95
2019-11-04 12:00:00 11.6 6 Norte 18 Noroeste 1.4 -- -- 94
2019-11-04 11:00:00 12.6 5 Noroeste 13 Noroeste 1 -- -- 93
2019-11-04 10:00:00 15 7 Noroeste 28 Norte 0 -- -- 77
2019-11-04 09:00:00 14.9 9 Nordeste 29 Noroeste 0 -- -- 69
2019-11-04 08:00:00 14.6 6 Nordeste 31 Nordeste 0 -- -- 69
2019-11-04 07:00:00 14.6 10 Nordeste 30 Nordeste 0 -- -- 67
2019-11-04 06:00:00 15 10 Norte 30 Norte 0 -- -- 70
2019-11-04 05:00:00 15.2 13 Norte 34 Noroeste 0 -- -- 69
2019-11-04 04:00:00 15.4 13 Norte 36 Oeste 0 -- -- 70
2019-11-04 03:00:00 14.7 7 Norte 29 Noroeste 0 -- -- 75
2019-11-04 02:00:00 13.7 5 Nordeste 16 Noroeste 0 -- -- 80
2019-11-04 01:00:00 12.8 5 Norte 17 Norte 0 -- -- 85
2019-11-04 00:00:00 12.6 5 Norte 26 Noroeste 0 -- -- 87
2019-11-03 23:00:00 12.5 7 Norte 22 Oeste 0 -- -- 85
2019-11-03 22:00:00 11.1 3 Este 25 Oeste 0 -- -- 91
2019-11-03 21:00:00 11.1 6 Noroeste 20 Noroeste 0 -- -- 85
2019-11-03 20:00:00 10.6 7 Nordeste 21 Nordeste 0.2 -- -- 87
2019-11-03 19:00:00 11 5 Sur 9 Sudeste 0 -- -- 71
2019-11-03 18:00:00 10.8 4 Sudoeste 6 Sudoeste 0 -- -- 76
2019-11-03 17:00:00 11.9 3 Sudoeste 6 Oeste 0 -- -- 72
2019-11-03 16:00:00 12.5 3 Oeste 14 Oeste 0 -- -- 76
2019-11-03 15:00:00 13.1 5 Noroeste 24 Norte 0 -- -- 61
2019-11-03 14:00:00 11.9 6 Norte 28 Noroeste 0 -- -- 63
2019-11-03 13:00:00 11.9 8 Norte 30 Noroeste 0 -- -- 65
2019-11-03 12:00:00 10.8 10 Norte 27 Oeste 0 -- -- 70
2019-11-03 11:00:00 10.7 9 Norte 35 Oeste 0 -- -- 71
2019-11-03 10:00:00 10.3 12 Norte 40 Norte 0 -- -- 71
2019-11-03 09:00:00 9.6 15 Norte 37 Norte 0 -- -- 73
2019-11-03 08:00:00 9.1 11 Norte 37 Norte 0 -- -- 79
2019-11-03 07:00:00 8.3 18 Norte 69 Oeste 0 -- -- 84
2019-11-03 06:00:00 9.3 15 Norte 46 Noroeste 1.4 -- -- 91
2019-11-03 05:00:00 10.4 12 Norte 40 Noroeste 2.4 -- -- 90
2019-11-03 04:00:00 12.6 8 Norte 39 Norte 0 -- -- 82
2019-11-03 03:00:00 13.8 13 Nordeste 41 Noroeste 0 -- -- 72
2019-11-03 02:00:00 14.6 13 Norte 42 Noroeste 0 -- -- 64
2019-11-03 01:00:00 14.6 11 Noroeste 43 Noroeste 0 -- -- 62
2019-11-03 00:00:00 14.9 11 Noroeste 35 Oeste 0 -- -- 59
2019-11-02 23:00:00 14.6 8 Norte 28 Noroeste 0 -- -- 62
2019-11-02 22:00:00 14.5 7 Noroeste 28 Noroeste 0 -- -- 61
2019-11-02 21:00:00 13.6 5 Norte 20 Noroeste 0 -- -- 73
2019-11-02 20:00:00 12.1 3 Sudoeste 15 Nordeste 0 -- -- 94
2019-11-02 19:00:00 12.9 4 Sur 19 Este 0 -- -- 93
2019-11-02 18:00:00 13.1 5 Sudeste 11 Sur 0.4 -- -- 97
2019-11-02 17:00:00 13.5 2 Noroeste 5 Sudoeste 0.4 -- -- 96
2019-11-02 16:00:00 13.6 2 Sudeste 8 Noroeste 0 -- -- 94
2019-11-02 15:00:00 13.9 3 Norte 9 Norte 0 -- -- 94
2019-11-02 14:00:00 14.1 2 Nordeste 9 Este 0 -- -- 94
2019-11-02 13:00:00 13.3 3 Oeste 14 Oeste 0 -- -- 95
2019-11-02 12:00:00 13.1 6 Noroeste 17 Noroeste 0.4 -- -- 96
2019-11-02 11:00:00 13.4 5 Noroeste 22 Noroeste 1.2 -- -- 97
2019-11-02 10:00:00 13.4 5 Noroeste 12 Noroeste 1.2 -- -- 97
2019-11-02 09:00:00 13.7 3 Noroeste 10 Noroeste 0 -- -- 97
2019-11-02 08:00:00 13.7 4 Noroeste 10 Noroeste 0 -- -- 97
2019-11-02 07:00:00 13.7 3 Noroeste 13 Norte 0.2 -- -- 97
2019-11-02 06:00:00 13.4 3 Oeste 10 Noroeste 0 -- -- 97
2019-11-02 05:00:00 13.2 0 Calma 8 Noroeste 0 -- -- 96
2019-11-02 04:00:00 14.1 4 Sudoeste 12 Noroeste 0 -- -- 92
2019-11-02 03:00:00 14.1 4 Sudoeste 16 Sudoeste 0 -- -- 92
2019-11-02 02:00:00 13.7 3 Sudoeste 9 Sur 0 -- -- 92
2019-11-02 01:00:00 14 4 Sudoeste 9 Sudoeste 0 -- -- 93
2019-11-02 00:00:00 14.1 4 Sudoeste 10 Sur 0 -- -- 94
2019-11-01 23:00:00 14.5 4 Sudoeste 8 Sudoeste 0 -- -- 96
2019-11-01 22:00:00 14.6 3 Sur 9 Sur 0 -- -- 97
2019-11-01 21:00:00 14.8 3 Sur 13 Sudeste 0 -- -- 96
2019-11-01 20:00:00 15.4 5 Sudeste 12 Sudeste 0 -- -- 96
2019-11-01 19:00:00 15.3 3 Sudeste 10 Oeste 0.4 -- -- 96
2019-11-01 18:00:00 15.7 4 Noroeste 37 Oeste 0.8 -- -- 94
2019-11-01 17:00:00 17 3 Noroeste 16 Oeste 0 -- -- 93
2019-11-01 16:00:00 18.5 4 Norte 14 Noroeste 0.4 -- -- 86
2019-11-01 15:00:00 20.3 2 Norte 8 Nordeste 0 -- -- 78
2019-11-01 14:00:00 20.4 3 Norte 11 Nordeste 0 -- -- 68
2019-11-01 13:00:00 20.2 4 Nordeste 10 Este 0 -- -- 76
2019-11-01 12:00:00 19.3 2 Nordeste 6 Nordeste 0 -- -- 80
2019-11-01 11:00:00 17.1 0 Calma 10 Sudeste 0 -- -- 91
2019-11-01 10:00:00 16 5 Sudeste 9 Sudeste 0 -- -- 96
2019-11-01 09:00:00 15 2 Sur 10 Sudeste 0 -- -- 96
2019-11-01 08:00:00 14.7 5 Sudeste 11 Sudeste 0 -- -- 96
2019-11-01 07:00:00 14.7 4 Sur 8 Sur 0 -- -- 97
2019-11-01 06:00:00 14.5 3 Sudeste 8 Sudeste 0 -- -- 96
2019-11-01 05:00:00 14.7 2 Sur 8 Nordeste 0.8 -- -- 95
2019-11-01 04:00:00 14.6 4 Noroeste 15 Oeste 0 -- -- 92
2019-11-01 03:00:00 13.9 4 Sur 11 Sudeste 0 -- -- 90
2019-11-01 02:00:00 14 5 Sudeste 12 Sudeste 0 -- -- 90
2019-11-01 01:00:00 13.4 3 Sur 12 Sudeste 0 -- -- 94
2019-11-01 00:00:00 13.4 6 Sudeste 11 Sudeste 0 -- -- 94
2019-10-31 23:00:00 13.5 4 Sudeste 10 Sur 0 -- -- 94
2019-10-31 22:00:00 13.4 3 Sur 9 Sudeste 0 -- -- 96
2019-10-31 21:00:00 12.9 3 Sudeste 6 Sudeste 0 -- -- 95
2019-10-31 20:00:00 13 3 Sudoeste 4 Sudoeste 0 -- -- 94
2019-10-31 19:00:00 13.6 2 Sudoeste 4 Sudoeste 0 -- -- 92
2019-10-31 18:00:00 15.3 3 Oeste 6 Norte 0 -- -- 88
2019-10-31 17:00:00 16.4 2 Noroeste 13 Nordeste 0 -- -- 81
2019-10-31 16:00:00 16.8 5 Norte 14 Norte 0 -- -- 78
2019-10-31 15:00:00 16.5 6 Noroeste 18 Noroeste 0 -- -- 80
2019-10-31 14:00:00 16.2 7 Noroeste 18 Noroeste 0 -- -- 82
2019-10-31 13:00:00 16.6 6 Noroeste 20 Noroeste 0 -- -- 81
2019-10-31 12:00:00 15.1 6 Noroeste 18 Noroeste 0 -- -- 90
2019-10-31 11:00:00 14.4 7 Noroeste 22 Noroeste 0 -- -- 95
2019-10-31 10:00:00 14 6 Noroeste 19 Noroeste 0 -- -- 95
2019-10-31 09:00:00 13.9 4 Norte 20 Oeste 0.4 -- -- 96
2019-10-31 08:00:00 13.9 8 Noroeste 32 Oeste 0.2 -- -- 95
2019-10-31 07:00:00 14 9 Noroeste 26 Noroeste 0.4 -- -- 95
2019-10-31 06:00:00 14.1 5 Noroeste 24 Noroeste 0.4 -- -- 96
2019-10-31 05:00:00 14.3 8 Noroeste 22 Oeste 0.4 -- -- 96
2019-10-31 04:00:00 14 5 Oeste 9 Noroeste 1.4 -- -- 96
2019-10-31 03:00:00 13.9 4 Oeste 6 Oeste 0 -- -- 95
2019-10-31 02:00:00 14.1 2 Sudoeste 5 Norte 0 -- -- 94
2019-10-31 01:00:00 14.6 4 Norte 20 Noroeste 1.6 -- -- 94
2019-10-31 00:00:00 15.3 6 Noroeste 22 Oeste 0 -- -- 90
2019-10-30 23:00:00 15.5 4 Noroeste 18 Noroeste 0 -- -- 82
2019-10-30 22:00:00 15.5 3 Sudoeste 8 Sudoeste 0 -- -- 83
2019-10-30 21:00:00 15.3 3 Sur 7 Sur 0 -- -- 83
2019-10-30 20:00:00 16 2 Oeste 9 Oeste 0 -- -- 81
2019-10-30 19:00:00 16.8 3 Sudoeste 11 Sur 0 -- -- 74
2019-10-30 18:00:00 18.1 3 Sudeste 18 Oeste 0 -- -- 72
2019-10-30 17:00:00 18 3 Noroeste 12 Norte 0 -- -- 74
2019-10-30 16:00:00 18.8 3 Nordeste 11 Este 0 -- -- 70
2019-10-30 15:00:00 19.8 4 Norte 10 Nordeste 0 -- -- 61
2019-10-30 14:00:00 20.8 5 Nordeste 15 Nordeste 0 -- -- 61
2019-10-30 13:00:00 19.7 3 Este 16 Noroeste 0 -- -- 65
2019-10-30 12:00:00 19.6 4 Noroeste 12 Norte 0 -- -- 66
2019-10-30 11:00:00 17.4 4 Este 9 Nordeste 0 -- -- 73
2019-10-30 10:00:00 14.9 2 Sudeste 12 Sur 0 -- -- 86
2019-10-30 09:00:00 13 4 Sudeste 11 Este 0 -- -- 90
2019-10-30 08:00:00 11.7 4 Sudoeste 8 Sur 0 -- -- 91
2019-10-30 07:00:00 11.7 5 Sur 12 Sur 0 -- -- 92
2019-10-30 06:00:00 12 5 Sur 13 Sudeste 0 -- -- 93
2019-10-30 05:00:00 12.2 3 Sur 9 Sudeste 0 -- -- 94
2019-10-30 04:00:00 12.8 3 Sur 10 Sur 0 -- -- 95
2019-10-30 03:00:00 13.2 6 Sur 12 Sudeste 0 -- -- 97
2019-10-30 02:00:00 13.3 6 Sur 14 Sudeste 0 -- -- 96
2019-10-30 01:00:00 13.1 5 Sudeste 8 Sudeste 0 -- -- 96
2019-10-30 00:00:00 13.1 3 Sur 8 Sur 0 -- -- 94
2019-10-29 23:00:00 12.9 3 Sur 5 Sudeste 0 -- -- 92
2019-10-29 22:00:00 13.1 3 Sudoeste 5 Sudoeste 0 -- -- 90
2019-10-29 21:00:00 14.3 3 Sudoeste 5 Oeste 0 -- -- 91
2019-10-29 20:00:00 14.6 2 Oeste 5 Sudoeste 0 -- -- 92
2019-10-29 19:00:00 14.9 3 Oeste 6 Oeste 0 -- -- 88
2019-10-29 18:00:00 16.9 3 Noroeste 10 Noroeste 0 -- -- 83
2019-10-29 17:00:00 18 3 Norte 12 Nordeste 0 -- -- 78
2019-10-29 16:00:00 19.8 5 Noroeste 10 Oeste 0 -- -- 70
2019-10-29 15:00:00 19.9 5 Oeste 13 Oeste 0 -- -- 69
2019-10-29 14:00:00 21.2 4 Noroeste 13 Noroeste 0 -- -- 62
2019-10-29 13:00:00 20.6 5 Noroeste 13 Oeste 0 -- -- 63
2019-10-29 12:00:00 19.7 2 Noroeste 9 Noroeste 0 -- -- 68
2019-10-29 11:00:00 18.9 2 Este 6 Oeste 0 -- -- 73
2019-10-29 10:00:00 16.1 4 Este 8 Este 0 -- -- 82
2019-10-29 09:00:00 14.3 0 Calma 5 Este 0 -- -- 86
2019-10-29 08:00:00 15 3 Sudoeste 14 Oeste 0 -- -- 81
2019-10-29 07:00:00 13.6 3 Sur 6 Sur 0 -- -- 86
2019-10-29 06:00:00 13.7 4 Sur 12 Sudeste 0 -- -- 83
2019-10-29 05:00:00 14 3 Sur 6 Sudeste 0 -- -- 81
2019-10-29 04:00:00 14.3 3 Sudoeste 8 Sur 0 -- -- 80
2019-10-29 03:00:00 14.5 3 Sur 8 Sur 0 -- -- 78
2019-10-29 02:00:00 14.6 3 Sudoeste 6 Sudoeste 0 -- -- 80
2019-10-29 01:00:00 15.2 3 Sur 8 Sur 0 -- -- 76
2019-10-29 00:00:00 15.5 4 Sur 11 Oeste 0 -- -- 75
2019-10-28 23:00:00 14.4 3 Oeste 8 Sur 0 -- -- 80
2019-10-28 22:00:00 15.2 3 Sudeste 10 Sur 0 -- -- 78
2019-10-28 21:00:00 14.7 2 Sudoeste 7 Oeste 0 -- -- 83
2019-10-28 20:00:00 15.5 4 Oeste 13 Noroeste 0 -- -- 84
2019-10-28 19:00:00 16.5 3 Oeste 11 Noroeste 0 -- -- 77
2019-10-28 18:00:00 17.8 5 Sudoeste 7 Sudoeste 0 -- -- 68
2019-10-28 17:00:00 18.8 5 Sudoeste 7 Sudoeste 0 -- -- 66
2019-10-28 16:00:00 21.8 3 Sur 6 Noroeste 0 -- -- 55
2019-10-28 15:00:00 24 3 Sudeste 10 Noroeste 0 -- -- 50
2019-10-28 14:00:00 23.3 4 Oeste 21 Noroeste 0 -- -- 47
2019-10-28 13:00:00 19.7 4 Sur 18 Oeste 0 -- -- 51
2019-10-28 12:00:00 18.6 4 Sur 16 Sudoeste 0 -- -- 55
2019-10-28 11:00:00 16.1 3 Sur 14 Este 0 -- -- 72
2019-10-28 10:00:00 15.3 7 Sudeste 18 Sur 0 -- -- 74
2019-10-28 09:00:00 15.2 5 Sudeste 11 Sudeste 0 -- -- 71
2019-10-28 08:00:00 15.1 6 Sur 12 Sudeste 0 -- -- 69
2019-10-28 07:00:00 16.3 4 Sur 11 Sur 0 -- -- 68
2019-10-28 06:00:00 16.5 4 Sur 14 Sudeste 0 -- -- 59
2019-10-28 05:00:00 16.7 4 Sur 18 Sur 0 -- -- 59
2019-10-28 04:00:00 16.8 4 Sur 14 Sudeste 0 -- -- 65
2019-10-28 03:00:00 17.3 6 Sur 19 Sur 0 -- -- 60
2019-10-28 02:00:00 17.1 5 Sur 16 Sur 0 -- -- 63
2019-10-28 01:00:00 16.3 6 Sur 14 Sur 0 -- -- 65
2019-10-28 00:00:00 16.6 4 Sur 20 Sudeste 0 -- -- 68
2019-10-27 23:00:00 16.6 3 Sur 21 Sur 0 -- -- 67
2019-10-27 22:00:00 17.9 9 Sur 22 Sur 0 -- -- 59
2019-10-27 21:00:00 17.4 6 Sur 17 Sudeste 0 -- -- 62
2019-10-27 20:00:00 17.6 6 Sur 24 Sur 0 -- -- 60
2019-10-27 19:00:00 18.1 7 Sur 18 Sur 0 -- -- 61
2019-10-27 18:00:00 18.2 4 Sudeste 14 Sudeste 0 -- -- 65
2019-10-27 17:00:00 19.1 3 Sudeste 10 Sur 0 -- -- 63
2019-10-27 16:00:00 20.8 4 Sudeste 19 Sudeste 0 -- -- 47
2019-10-27 15:00:00 21 3 Sudeste 17 Sudeste 0 -- -- 51
2019-10-27 14:00:00 22 4 Sudeste 17 Sudeste 0 -- -- 54
2019-10-27 13:00:00 20.6 4 Sudeste 14 Sur 0 -- -- 58
2019-10-27 12:00:00 19.1 5 Sudeste 15 Sudeste 0 -- -- 63
2019-10-27 11:00:00 17.6 3 Sudeste 15 Sudeste 0 -- -- 68
2019-10-27 10:00:00 15.6 5 Sudeste 13 Sur 0 -- -- 74
2019-10-27 09:00:00 13.7 6 Sudeste 16 Sudeste 0 -- -- 79
2019-10-27 08:00:00 13.1 6 Sudeste 14 Sudeste 0 -- -- 80
2019-10-27 07:00:00 13.9 4 Sudeste 13 Sur 0 -- -- 76
2019-10-27 06:00:00 14 5 Sur 11 Sur 0 -- -- 74
2019-10-27 05:00:00 13.1 3 Sur 12 Sur 0 -- -- 77
2019-10-27 04:00:00 14.4 4 Sur 14 Sur 0 -- -- 74
2019-10-27 03:00:00 15 5 Sur 14 Sudeste 0 -- -- 68
2019-10-27 02:00:00 14.7 4 Sur 15 Sudeste 0 -- -- 71
2019-10-27 01:00:00 15.1 5 Sudeste 13 Sur 0 -- -- 70
2019-10-27 00:00:00 15 4 Sur 11 Sudeste 0 -- -- 69
2019-10-26 23:00:00 15.5 5 Sur 14 Sudeste 0 -- -- 66
2019-10-26 22:00:00 15.5 4 Sudoeste 15 Sur 0 -- -- 65
2019-10-26 21:00:00 16.2 4 Sur 11 Sudeste 0 -- -- 64
2019-10-26 20:00:00 16.5 4 Sur 13 Sudeste 0 -- -- 67
2019-10-26 19:00:00 18 5 Sur 13 Sur 0 -- -- 61
2019-10-26 18:00:00 19 4 Sur 12 Sudeste 0 -- -- 63
2019-10-26 17:00:00 20.9 3 Nordeste 13 Sudeste 0 -- -- 54
2019-10-26 16:00:00 22.9 4 Norte 17 Sur 0 -- -- 48
2019-10-26 15:00:00 22.7 4 Oeste 17 Sudeste 0 -- -- 46
2019-10-26 14:00:00 21.7 5 Noroeste 21 Noroeste 0 -- -- 48
2019-10-26 13:00:00 21.1 5 Sudeste 18 Este 0 -- -- 50
2019-10-26 12:00:00 19.3 5 Sudeste 15 Sudeste 0 -- -- 57
2019-10-26 11:00:00 16.4 6 Sur 17 Sudoeste 0 -- -- 66
2019-10-26 10:00:00 13.8 4 Sur 13 Sudeste 0 -- -- 76
2019-10-26 09:00:00 12 4 Sudoeste 9 Sudoeste 0 -- -- 79
2019-10-26 08:00:00 12.5 4 Sudoeste 11 Sur 0 -- -- 75
2019-10-26 07:00:00 13.1 4 Sur 13 Sur 0 -- -- 74
2019-10-26 06:00:00 12.6 5 Sudoeste 11 Sur 0 -- -- 78
2019-10-26 05:00:00 13.6 5 Sudoeste 13 Sudeste 0 -- -- 73
2019-10-26 04:00:00 14.3 5 Sur 15 Sudeste 0 -- -- 67
2019-10-26 03:00:00 15.1 5 Sur 20 Este 0 -- -- 67
2019-10-26 02:00:00 14.5 5 Sudeste 17 Este 0 -- -- 63
2019-10-26 01:00:00 14.6 6 Sur 18 Nordeste 0 -- -- 62
2019-10-26 00:00:00 13.3 4 Sur 11 Sudoeste 0 -- -- 61
2019-10-25 23:00:00 13.7 4 Sur 13 Este 0 -- -- 61
2019-10-25 22:00:00 13.5 4 Sudoeste 11 Oeste 0 -- -- 68
2019-10-25 21:00:00 14.7 4 Sudeste 15 Sur 0 -- -- 56
2019-10-25 20:00:00 14.1 4 Sudoeste 13 Este 0 -- -- 76
2019-10-25 19:00:00 15.5 5 Sur 12 Sudeste 0 -- -- 78
2019-10-25 18:00:00 16.4 5 Sudoeste 9 Sudoeste 0 -- -- 77
2019-10-25 17:00:00 19.7 3 Sudoeste 9 Sudeste 0 -- -- 67
2019-10-25 16:00:00 21.1 4 Oeste 12 Sudoeste 0 -- -- 56
2019-10-25 15:00:00 20.7 6 Sudoeste 14 Oeste 0 -- -- 56
2019-10-25 14:00:00 19.8 3 Norte 15 Sudeste 0 -- -- 62
2019-10-25 13:00:00 17.9 5 Sudeste 17 Este 0 -- -- 69
2019-10-25 12:00:00 16 4 Este 12 Este 0 -- -- 79
2019-10-25 11:00:00 13.2 3 Este 13 Este 0 -- -- 90
2019-10-25 10:00:00 10.9 3 Este 11 Sudeste 0 -- -- 94
2019-10-25 09:00:00 10.5 5 Sudeste 12 Sudeste 0 -- -- 93
2019-10-25 08:00:00 10.2 5 Sudeste 15 Sudeste 0 -- -- 96
2019-10-25 07:00:00 10.4 3 Sudeste 17 Sudoeste 0 -- -- 95
2019-10-25 06:00:00 10.4 4 Sudeste 13 Sudeste 0 -- -- 96
2019-10-25 05:00:00 9.9 4 Sur 10 Sur 0 -- -- 97
2019-10-25 04:00:00 10.4 5 Sur 11 Sudeste 0 -- -- 96
2019-10-25 03:00:00 10.2 5 Sur 10 Sudeste 0 -- -- 97
2019-10-25 02:00:00 10.8 4 Sur 8 Sur 0 -- -- 96
2019-10-25 01:00:00 11.1 3 Sur 9 Sudeste 0 -- -- 97
2019-10-25 00:00:00 10.7 3 Sur 7 Sur 0 -- -- 96
2019-10-24 23:00:00 11.6 2 Sur 8 Sudeste 0 -- -- 95
2019-10-24 22:00:00 11.7 0 Calma 5 Sudoeste 0 -- -- 96
2019-10-24 21:00:00 11.6 3 Sudoeste 5 Sudoeste 0 -- -- 96
2019-10-24 20:00:00 11.8 2 Oeste 6 Oeste 0 -- -- 96
2019-10-24 19:00:00 12.3 2 Oeste 5 Oeste 0 -- -- 94
2019-10-24 18:00:00 12.7 0 Calma 6 Sur 0 -- -- 94
2019-10-24 17:00:00 11.4 2 Sur 9 Sudeste 0 -- -- 96
2019-10-24 16:00:00 10.5 3 Sur 12 Sur 0 -- -- 95
2019-10-24 15:00:00 10.2 4 Sudeste 11 Sudeste 0 -- -- 96
2019-10-24 14:00:00 9.9 4 Sudeste 14 Oeste 1 -- -- 95
2019-10-24 13:00:00 10.4 3 Sudeste 12 Noroeste 0.2 -- -- 92
2019-10-24 12:00:00 9.5 3 Sudeste 9 Sudeste 0 -- -- 92
2019-10-24 11:00:00 8.8 3 Sudeste 9 Sudeste 0 -- -- 96
2019-10-24 10:00:00 8.2 3 Sudeste 10 Sudeste 0 -- -- 96
2019-10-24 09:00:00 7.9 3 Sur 12 Sur 0 -- -- 97
2019-10-24 08:00:00 8.1 5 Sudeste 13 Sudoeste 0 -- -- 95
2019-10-24 07:00:00 8.1 3 Oeste 11 Sudeste 0 -- -- 95
2019-10-24 06:00:00 8.3 0 Calma 12 Sudeste 0 -- -- 96
2019-10-24 05:00:00 8.3 3 Sur 12 Noroeste 0 -- -- 95
2019-10-24 04:00:00 8.4 2 Norte 6 Noroeste 0 -- -- 96
2019-10-24 03:00:00 8.6 3 Nordeste 15 Noroeste 0 -- -- 95
2019-10-24 02:00:00 9.2 4 Norte 13 Noroeste 0 -- -- 94
2019-10-24 01:00:00 9.7 0 Calma 7 Norte 0 -- -- 96
2019-10-24 00:00:00 10 3 Norte 9 Oeste 0.4 -- -- 96
2019-10-23 23:00:00 10.4 3 Noroeste 8 Noroeste 2.6 -- -- 96
2019-10-23 22:00:00 10.8 2 Nordeste 12 Noroeste 2 -- -- 96
2019-10-23 21:00:00 11 4 Noroeste 15 Sudoeste 2.6 -- -- 95
2019-10-23 20:00:00 11.3 6 Noroeste 13 Oeste 0.2 -- -- 95
2019-10-23 19:00:00 11.6 3 Noroeste 12 Oeste 0.8 -- -- 94
2019-10-23 18:00:00 12.7 2 Noroeste 6 Oeste 4.2 -- -- 93
2019-10-23 17:00:00 14.5 3 Sudoeste 5 Sudoeste 0.4 -- -- 88
2019-10-23 16:00:00 14.9 0 Calma 8 Este 0 -- -- 83
2019-10-23 15:00:00 15 0 Calma 10 Oeste 0 -- -- 81
2019-10-23 14:00:00 14.4 3 Noroeste 10 Sur 0 -- -- 84
2019-10-23 13:00:00 13.3 3 Sudeste 12 Este 0 -- -- 89
2019-10-23 12:00:00 12 4 Sudeste 9 Este 0 -- -- 97
2019-10-23 11:00:00 10.6 3 Sudeste 12 Sudeste 0.2 -- -- 98
2019-10-23 10:00:00 10.7 2 Nordeste 7 Este 0 -- -- 98
2019-10-23 09:00:00 10.3 0 Calma 5 Oeste 0 -- -- 98
2019-10-23 08:00:00 10.2 0 Calma 6 Noroeste 0 -- -- 97
2019-10-23 07:00:00 10.2 5 Oeste 9 Oeste 0.2 -- -- 97
2019-10-23 06:00:00 10.3 3 Norte 9 Norte 0 -- -- 97
2019-10-23 05:00:00 10.3 3 Nordeste 18 Norte 0 -- -- 97
2019-10-23 04:00:00 10.2 4 Noroeste 18 Oeste 0 -- -- 97
2019-10-23 03:00:00 9.8 3 Sur 8 Sur 0 -- -- 97
2019-10-23 02:00:00 10.1 3 Oeste 10 Noroeste 0 -- -- 97
2019-10-23 01:00:00 9.9 4 Noroeste 10 Noroeste 0 -- -- 97
2019-10-23 00:00:00 9.8 0 Calma 9 Oeste 0 -- -- 96
2019-10-22 23:00:00 9.6 5 Oeste 12 Oeste 0 -- -- 96
2019-10-22 22:00:00 9.5 4 Oeste 13 Noroeste 0 -- -- 96
2019-10-22 21:00:00 9.2 2 Oeste 14 Noroeste 2.8 -- -- 95
2019-10-22 20:00:00 8.9 5 Noroeste 16 Noroeste 4.2 -- -- 95
2019-10-22 19:00:00 8.9 4 Nordeste 28 Este 3.2 -- -- 92
2019-10-22 18:00:00 9.2 3 Noroeste 17 Sudeste 3.6 -- -- 93
2019-10-22 17:00:00 9.4 5 Este 31 Sudeste 3.4 -- -- 92
2019-10-22 16:00:00 10.1 3 Sudoeste 10 Norte 2 -- -- 91
2019-10-22 15:00:00 10.5 3 Noroeste 11 Este 0 -- -- 89
2019-10-22 14:00:00 10.6 3 Este 18 Este 0 -- -- 88
2019-10-22 13:00:00 10.4 3 Sudeste 17 Nordeste 0 -- -- 89
2019-10-22 12:00:00 10 3 Este 12 Nordeste 0 -- -- 92
2019-10-22 11:00:00 9.8 8 Este 13 Sudeste 0 -- -- 100
2019-10-22 10:00:00 8.5 0 Calma 8 Sudoeste 0 -- -- 100
2019-10-22 09:00:00 6.3 0 Calma 9 Sudeste 0 -- -- 100
2019-10-22 08:00:00 5.6 4 Sur 12 Sur 0.2 -- -- 100
2019-10-22 07:00:00 5.4 5 Sur 12 Sudeste 0 -- -- 100
2019-10-22 06:00:00 5.7 3 Sudeste 15 Sudeste 0 -- -- 100
2019-10-22 05:00:00 6.1 3 Sur 11 Sudeste 0 -- -- 100
2019-10-22 04:00:00 5.6 0 Calma 12 Sudeste 0 -- -- 100
2019-10-22 03:00:00 6.9 3 Sur 9 Sudeste 0 -- -- 100
2019-10-22 02:00:00 7.1 4 Sudeste 8 Sudeste 0 -- -- 100
2019-10-22 01:00:00 6.8 2 Sur 5 Sudeste 0 -- -- 100
2019-10-22 00:00:00 7.1 3 Oeste 5 Sur 0 -- -- 100
2019-10-21 23:00:00 7.3 2 Sur 5 Sudoeste 0 -- -- 100
2019-10-21 22:00:00 7.6 0 Calma 5 Sudoeste 0 -- -- 100
2019-10-21 21:00:00 8 4 Sudoeste 8 Sudoeste 0 -- -- 100
2019-10-21 20:00:00 8.6 4 Sudoeste 7 Oeste 0 -- -- 97
2019-10-21 19:00:00 10 2 Sudoeste 12 Nordeste 0 -- -- 93
2019-10-21 18:00:00 11.6 5 Nordeste 13 Este 0 -- -- 84
2019-10-21 17:00:00 12.3 3 Nordeste 8 Nordeste 0 -- -- 81
2019-10-21 16:00:00 13.1 3 Norte 8 Noroeste 0 -- -- 77
2019-10-21 15:00:00 12.8 2 Noroeste 8 Nordeste 0 -- -- 77
2019-10-21 14:00:00 13.6 3 Nordeste 9 Norte 0 -- -- 72
2019-10-21 13:00:00 12.7 3 Oeste 10 Norte 0 -- -- 82
2019-10-21 12:00:00 9.9 2 Sudeste 8 Sudeste 0 -- -- 100
2019-10-21 11:00:00 7.7 3 Este 11 Sudeste 0 -- -- 100
2019-10-21 10:00:00 7.2 3 Sudeste 10 Sur 0 -- -- 100
2019-10-21 09:00:00 6.6 3 Sudeste 8 Sudeste 0 -- -- --
2019-10-21 08:00:00 6.9 3 Sudeste 9 Sudeste 0 -- -- --
2019-10-21 07:00:00 6.9 3 Sudeste 9 Sudeste 0 -- -- --
2019-10-21 06:00:00 6.8 2 Sur 7 Sur 0 -- -- --
2019-10-21 05:00:00 6.7 3 Sur 5 Sur 0 -- -- --
2019-10-21 04:00:00 7.4 2 Sudoeste 6 Sudeste 0 -- -- --
2019-10-21 03:00:00 7.9 0 Calma 3 Sur 0 -- -- --
2019-10-21 02:00:00 8 2 Sur 5 Sur 0 -- -- --
2019-10-21 01:00:00 8.2 0 Calma 7 Noroeste 0.4 -- -- --
2019-10-21 00:00:00 8.2 0 Calma 4 Sudoeste 3.4 -- -- --
2019-10-20 23:00:00 8.2 2 Sudoeste 5 Sudoeste 1.2 -- -- --
2019-10-20 22:00:00 8.3 2 Sudoeste 4 Sudoeste 0 -- -- --
2019-10-20 21:00:00 8.7 0 Calma 5 Este 0 -- -- --
2019-10-20 20:00:00 9 3 Noroeste 12 Norte 0 -- -- --
2019-10-20 19:00:00 9.2 5 Noroeste 17 Noroeste 0 -- -- --
2019-10-20 18:00:00 9.6 4 Noroeste 12 Noroeste 0 -- -- --
2019-10-20 17:00:00 9.8 5 Noroeste 19 Noroeste 0.8 -- -- --
2019-10-20 16:00:00 9.4 6 Noroeste 19 Noroeste 0.4 -- -- --
2019-10-20 15:00:00 9.4 4 Norte 20 Norte 1.4 -- -- --
2019-10-20 14:00:00 9.5 4 Norte 23 Oeste 0.4 -- -- --
2019-10-20 13:00:00 9.2 9 Noroeste 27 Norte 1.4 -- -- --
2019-10-20 12:00:00 9.8 5 Norte 19 Norte 0.4 -- -- --
2019-10-20 11:00:00 9.7 6 Norte 24 Norte 4.6 -- -- --
2019-10-20 10:00:00 9.7 6 Noroeste 24 Oeste 10.4 -- -- 100
2019-10-20 09:00:00 10.3 0 Calma 11 Oeste 2.6 -- -- 100
2019-10-20 08:00:00 10.3 4 Noroeste 18 Noroeste 0.4 -- -- 100
2019-10-20 07:00:00 10.3 7 Noroeste 24 Noroeste 1.8 -- -- 100
2019-10-20 06:00:00 10.5 6 Noroeste 30 Noroeste 1.6 -- -- 100
2019-10-20 05:00:00 10.8 7 Noroeste 19 Nordeste 2.6 -- -- 100
2019-10-20 04:00:00 11 5 Noroeste 25 Oeste 4.4 -- -- 100
2019-10-20 03:00:00 11.6 4 Noroeste 14 Oeste 0.2 -- -- 100
2019-10-20 02:00:00 12.3 4 Noroeste 12 Noroeste 0.2 -- -- 100
2019-10-20 01:00:00 12.4 3 Sur 9 Sur 0.2 -- -- 100
2019-10-20 00:00:00 12.5 2 Sudeste 6 Sur 1.4 -- -- 100
2019-10-19 23:00:00 12.5 2 Noroeste 5 Noroeste 1.8 -- -- 100
2019-10-19 22:00:00 12.9 2 Sudeste 10 Oeste 2.8 -- -- 100
2019-10-19 21:00:00 13 6 Noroeste 17 Noroeste 1 -- -- 99
2019-10-19 20:00:00 13.3 3 Oeste 8 Sudoeste 0 -- -- 96
2019-10-19 19:00:00 14.1 4 Oeste 8 Oeste 0.4 -- -- 92
2019-10-19 18:00:00 16.4 3 Sudoeste 6 Sur 0 -- -- 74
2019-10-19 17:00:00 19.2 4 Sudeste 13 Este 0 -- -- 59
2019-10-19 16:00:00 18.9 0 Calma 17 Este 0 -- -- 56
2019-10-19 15:00:00 18.3 4 Norte 13 Nordeste 0 -- -- 58
2019-10-19 14:00:00 18.2 3 Norte 17 Sur 0 -- -- 58
2019-10-19 13:00:00 16.6 5 Noroeste 21 Norte 0 -- -- 60
2019-10-19 12:00:00 15.7 5 Norte 20 Noroeste 0 -- -- 65
2019-10-19 11:00:00 14.9 5 Nordeste 17 Norte 0 -- -- 71
2019-10-19 10:00:00 14 6 Nordeste 17 Nordeste 0 -- -- 73
2019-10-19 09:00:00 14.1 5 Sudeste 25 Norte 0 -- -- 73
2019-10-19 08:00:00 14.1 5 Sudoeste 22 Este 0 -- -- 69
2019-10-19 07:00:00 14.4 7 Sudoeste 23 Oeste 0 -- -- 68
2019-10-19 06:00:00 13.5 4 Noroeste 19 Noroeste 0.2 -- -- 75
2019-10-19 05:00:00 13.5 3 Sudeste 16 Este 0 -- -- 78
2019-10-19 04:00:00 14.4 7 Sudeste 17 Sur 0 -- -- 72
2019-10-19 03:00:00 14.6 5 Sur 15 Sudeste 0 -- -- 69
2019-10-19 02:00:00 14.8 5 Sudeste 15 Sudeste 0 -- -- 74
2019-10-19 01:00:00 14.6 5 Sur 18 Sudeste 0 -- -- 72
2019-10-19 00:00:00 14.8 4 Norte 13 Oeste 0 -- -- 77
2019-10-18 23:00:00 14.5 4 Sur 18 Sur 0 -- -- 74
2019-10-18 22:00:00 12.8 3 Sudoeste 11 Este 0 -- -- 95
2019-10-18 21:00:00 12.8 4 Sur 10 Sur 0 -- -- 95
2019-10-18 20:00:00 13 3 Sudoeste 5 Sudoeste 0 -- -- 94
2019-10-18 19:00:00 14 0 Calma 4 Este 0 -- -- 89
2019-10-18 18:00:00 14.7 0 Calma 10 Nordeste 0 -- -- 88
2019-10-18 17:00:00 15.3 4 Nordeste 11 Nordeste 0 -- -- 84
2019-10-18 16:00:00 16.3 3 Nordeste 8 Sudeste 0 -- -- 83
2019-10-18 15:00:00 16.1 3 Sudeste 8 Este 0 -- -- 88
2019-10-18 14:00:00 14.4 0 Calma 6 Este 0 -- -- 95
2019-10-18 13:00:00 13.8 0 Calma 4 Este 0 -- -- 100
2019-10-18 12:00:00 13 0 Calma 4 Nordeste 0.2 -- -- 100
2019-10-18 11:00:00 12.7 0 Calma 3 Sudeste 0 -- -- 100
2019-10-18 10:00:00 12.4 0 Calma 4 Nordeste 0.2 -- -- 100
2019-10-18 09:00:00 12.2 0 Calma 7 Norte 1 -- -- 100
2019-10-18 08:00:00 12.4 5 Norte 15 Noroeste 1 -- -- 100
2019-10-18 07:00:00 12.8 2 Norte 13 Noroeste 0 -- -- 100
2019-10-18 06:00:00 12.9 4 Noroeste 14 Norte 0 -- -- 100
2019-10-18 05:00:00 13.1 6 Noroeste 14 Oeste 0 -- -- 100
2019-10-18 04:00:00 13.3 3 Noroeste 7 Oeste 0 -- -- 100
2019-10-18 03:00:00 13.2 2 Oeste 5 Sudoeste 0 -- -- 100
2019-10-18 02:00:00 13.4 0 Calma 6 Noroeste 0 -- -- 100
2019-10-18 01:00:00 13.5 3 Noroeste 6 Noroeste 0 -- -- 100
2019-10-18 00:00:00 13.5 3 Noroeste 9 Norte 0 -- -- 100
2019-10-17 23:00:00 13.9 2 Sur 7 Sur 0 -- -- 98
2019-10-17 22:00:00 14.5 3 Sudeste 8 Sudoeste 0 -- -- 96
2019-10-17 21:00:00 15 0 Calma 8 Noroeste 0 -- -- 96
2019-10-17 20:00:00 15.1 4 Noroeste 10 Noroeste 0 -- -- 93
2019-10-17 19:00:00 16.2 5 Noroeste 17 Oeste 0 -- -- 87
2019-10-17 18:00:00 18.8 7 Noroeste 19 Norte 0 -- -- 76
2019-10-17 17:00:00 21.2 4 Norte 22 Oeste 0 -- -- 56
2019-10-17 16:00:00 21.1 6 Norte 26 Noroeste 0 -- -- 58
2019-10-17 15:00:00 20.6 5 Este 14 Oeste 0 -- -- 63
2019-10-17 14:00:00 19.5 7 Norte 18 Noroeste 0 -- -- 67
2019-10-17 13:00:00 18.8 5 Nordeste 14 Oeste 0 -- -- 64
2019-10-17 12:00:00 17 2 Este 9 Este 0 -- -- 77
2019-10-17 11:00:00 15.2 3 Noroeste 15 Oeste 0 -- -- 79
2019-10-17 10:00:00 13.7 6 Este 15 Norte 0 -- -- 89
2019-10-17 09:00:00 12.3 3 Sudoeste 17 Este 0 -- -- 98
2019-10-17 08:00:00 12.6 4 Sur 12 Sudeste 0.6 -- -- 97
2019-10-17 07:00:00 13.2 4 Sur 15 Este 1 -- -- 94
2019-10-17 06:00:00 14.4 5 Norte 28 Sudoeste 0.6 -- -- 82
2019-10-17 05:00:00 15.4 5 Oeste 30 Noroeste 0 -- -- 80
2019-10-17 04:00:00 13.9 6 Nordeste 32 Norte 1.2 -- -- 86
2019-10-17 03:00:00 16.7 8 Noroeste 28 Oeste 0 -- -- 70
2019-10-17 02:00:00 17.2 6 Oeste 27 Noroeste 0 -- -- 61
2019-10-17 01:00:00 17.5 9 Nordeste 25 Nordeste 0 -- -- 55
2019-10-17 00:00:00 16.8 5 Este 15 Nordeste 0 -- -- 62
2019-10-16 23:00:00 17.3 5 Sudeste 27 Noroeste 0 -- -- 60
2019-10-16 22:00:00 17.1 9 Norte 25 Noroeste 0 -- -- 58
2019-10-16 21:00:00 17.2 8 Norte 21 Nordeste 0 -- -- 57
2019-10-16 20:00:00 17.3 9 Nordeste 30 Nordeste 0 -- -- 57
2019-10-16 19:00:00 16.8 5 Sur 20 Sur 0 -- -- 63
2019-10-16 18:00:00 18.2 5 Este 18 Este 0 -- -- 57
2019-10-16 17:00:00 20.1 5 Noroeste 23 Sur 0 -- -- 52
2019-10-16 16:00:00 20.1 7 Nordeste 21 Sur 0 -- -- 51
2019-10-16 15:00:00 18.9 8 Norte 32 Oeste 0 -- -- 55
2019-10-16 14:00:00 15.8 5 Sudoeste 31 Oeste 0 -- -- 66
2019-10-16 13:00:00 14.5 8 Norte 33 Oeste 0 -- -- 63
2019-10-16 12:00:00 14.1 9 Norte 22 Este 0 -- -- 69
2019-10-16 11:00:00 13.6 5 Este 23 Este 0 -- -- 71
2019-10-16 10:00:00 13.1 6 Nordeste 22 Nordeste 0 -- -- 70
2019-10-16 09:00:00 12.8 6 Este 23 Sur 0 -- -- 65
2019-10-16 08:00:00 12.6 5 Nordeste 16 Este 0 -- -- 68
2019-10-16 07:00:00 12.7 4 Nordeste 15 Nordeste 0 -- -- 71
2019-10-16 06:00:00 13.4 5 Este 21 Noroeste 0 -- -- 67
2019-10-16 05:00:00 13.1 4 Noroeste 17 Nordeste 0 -- -- 69
2019-10-16 04:00:00 12.9 5 Este 21 Sur 0 -- -- 69
2019-10-16 03:00:00 12.9 6 Sudeste 18 Este 0 -- -- 68
2019-10-16 02:00:00 12.8 5 Este 14 Nordeste 0 -- -- 69
2019-10-16 01:00:00 12 3 Oeste 20 Sur 0 -- -- 72
2019-10-16 00:00:00 12.9 5 Norte 19 Sur 0 -- -- 65
2019-10-15 23:00:00 12.3 6 Noroeste 20 Este 0 -- -- 64
2019-10-15 22:00:00 12.1 4 Noroeste 15 Sudoeste 0 -- -- 68
2019-10-15 21:00:00 12.9 5 Sur 23 Noroeste 0 -- -- 66
2019-10-15 20:00:00 12.8 3 Sur 13 Este 0 -- -- 69
2019-10-15 19:00:00 13.4 3 Sur 11 Nordeste 0 -- -- 72
2019-10-15 18:00:00 15.4 2 Noroeste 14 Norte 0 -- -- 65
2019-10-15 17:00:00 16.4 4 Norte 17 Oeste 0 -- -- 55
2019-10-15 16:00:00 16.8 7 Noroeste 17 Oeste 0 -- -- 50
2019-10-15 15:00:00 16.7 4 Noroeste 13 Noroeste 0 -- -- 58
2019-10-15 14:00:00 15.6 3 Este 15 Oeste 0 -- -- 56
2019-10-15 13:00:00 14.1 3 Noroeste 13 Oeste 0 -- -- 63
2019-10-15 12:00:00 13.7 4 Sudoeste 11 Oeste 0 -- -- 61
2019-10-15 11:00:00 11.5 3 Norte 13 Oeste 0 -- -- 76
2019-10-15 10:00:00 8.8 2 Este 8 Sudeste 0 -- -- 97
2019-10-15 09:00:00 7.4 0 Calma 6 Sudoeste 0 -- -- 100
2019-10-15 08:00:00 7.4 2 Sur 7 Sudeste 0 -- -- 100
2019-10-15 07:00:00 7 2 Oeste 8 Sudoeste 0 -- -- 100
2019-10-15 06:00:00 6.8 2 Sudoeste 7 Oeste 0 -- -- 100
2019-10-15 05:00:00 7.3 3 Sur 8 Sudoeste 0 -- -- 100
2019-10-15 04:00:00 7.1 4 Sudoeste 6 Sudoeste 0 -- -- 100
2019-10-15 03:00:00 8.1 2 Nordeste 9 Norte 0 -- -- 98
2019-10-15 02:00:00 8.4 4 Norte 11 Norte 0.2 -- -- 100
2019-10-15 01:00:00 8.6 3 Oeste 10 Noroeste 0 -- -- 100
2019-10-15 00:00:00 8.9 5 Norte 11 Norte 0.2 -- -- 100